Tracking 23726 objects as of 23-Sep-2021
HD Live streaming from Space Station
objects crossing your sky now

STARLINK-1738

Track STARLINK-1738 now!
10-day predictions
STARLINK-1738 is classified as:


NORAD ID: 46336
Int'l Code: 2020-062M
Perigee: 552.9 km
Apogee: 555.8 km
Inclination: 53.1 °
Period: 95.6 minutes
Semi major axis: 6925 km
RCS: Unknown
Launch date: September 3, 2020
Source: United States (US)
Launch site: AIR FORCE EASTERN TEST RANGE (AFETR)
aabbcc
Your satellite tracking list
Your tracking list is empty




NASA's NSSDC Master Catalog

Two Line Element Set (TLE):
1 46336U 20062M   21265.27560159 -.00000867  00000-0 -39290-4 0  9993
2 46336  53.0544 111.3492 0002116  76.9933 283.1292 15.06392066 58999
Source of the keplerian elements: AFSPC